LNNPO ENKB-ENSG

Flight info

Callsign LNNPO
Flight time 0h 48m
Altitude 9500
Route VOVZA DCT PABVU
Aircraft C210/L-SDGRY/S

Departure

Time 2026-04-22 05:58
Airport Kristiansund Airport, Kvernberget (ENKB)

Arrival

Time 2026-04-22 06:46
Airport Sogndal Airport, Haukåsen (ENSG)
Time Latitude Longitude Altitude Speed Heading
2026-04-22 05:49 63.11477 7.83165 206 ft 0 kts 162°
2026-04-22 05:55 63.11472 7.83169 206 ft 3 kts 161°
2026-04-22 05:55 63.11442 7.83192 214 ft 3 kts 160°
2026-04-22 05:55 63.11402 7.83221 207 ft 7 kts 164°
2026-04-22 05:56 63.11360 7.83254 206 ft 6 kts 160°
2026-04-22 05:56 63.11322 7.83282 209 ft 5 kts 175°
2026-04-22 05:56 63.11308 7.83259 206 ft 0 kts 251°
2026-04-22 05:57 63.11305 7.83240 206 ft 8 kts 251°
2026-04-22 05:57 63.11235 7.82775 210 ft 57 kts 251°
2026-04-22 05:57 63.11078 7.81805 363 ft 72 kts 251°
2026-04-22 05:57 63.10882 7.80646 516 ft 97 kts 250°
2026-04-22 05:58 63.10645 7.79100 733 ft 111 kts 251°
2026-04-22 05:58 63.10393 7.77406 1016 ft 120 kts 251°
2026-04-22 05:58 63.10140 7.75677 1285 ft 116 kts 251°
2026-04-22 05:58 63.09906 7.74010 1544 ft 112 kts 252°
2026-04-22 05:59 63.09650 7.72452 1792 ft 106 kts 245°
2026-04-22 05:59 63.09241 7.71141 2047 ft 102 kts 233°
2026-04-22 05:59 63.08625 7.70477 2272 ft 109 kts 184°
2026-04-22 05:59 63.07889 7.70588 2532 ft 104 kts 186°
2026-04-22 06:00 63.07181 7.70597 2788 ft 101 kts 191°
2026-04-22 06:00 63.06450 7.70525 2986 ft 110 kts 193°
2026-04-22 06:00 63.05667 7.70416 3179 ft 116 kts 192°
2026-04-22 06:00 63.04853 7.70267 3434 ft 118 kts 194°
2026-04-22 06:01 63.04029 7.70111 3703 ft 120 kts 193°
2026-04-22 06:01 63.03184 7.69948 3965 ft 124 kts 193°
2026-04-22 06:01 63.02318 7.69839 4213 ft 126 kts 185°
2026-04-22 06:01 63.01461 7.69868 4461 ft 125 kts 186°
2026-04-22 06:02 63.00584 7.69940 4720 ft 126 kts 186°
2026-04-22 06:02 62.99699 7.70015 5012 ft 128 kts 186°
2026-04-22 06:02 62.98798 7.70077 5263 ft 130 kts 186°
2026-04-22 06:02 62.97891 7.70148 5510 ft 131 kts 186°
2026-04-22 06:03 62.96976 7.70223 5759 ft 132 kts 185°
2026-04-22 06:03 62.96052 7.70302 6042 ft 134 kts 186°
2026-04-22 06:03 62.95107 7.70377 6328 ft 138 kts 185°
2026-04-22 06:03 62.94132 7.70446 6596 ft 142 kts 186°
2026-04-22 06:04 62.93142 7.70522 6841 ft 143 kts 185°
2026-04-22 06:04 62.92173 7.70498 7051 ft 137 kts 200°
2026-04-22 06:04 62.91455 7.69427 7287 ft 119 kts 243°
2026-04-22 06:04 62.91071 7.67885 7523 ft 113 kts 251°
2026-04-22 06:05 62.90648 7.66427 7765 ft 114 kts 240°
2026-04-22 06:05 62.90066 7.65214 8019 ft 117 kts 227°
2026-04-22 06:05 62.89383 7.64259 8282 ft 116 kts 218°
2026-04-22 06:05 62.88674 7.63496 8505 ft 111 kts 214°
2026-04-22 06:06 62.87987 7.62844 8750 ft 104 kts 213°
2026-04-22 06:06 62.87269 7.62177 8840 ft 119 kts 212°
2026-04-22 06:06 62.86461 7.61445 8934 ft 132 kts 210°
2026-04-22 06:06 62.85563 7.60663 9056 ft 146 kts 208°
2026-04-22 06:07 62.84579 7.59826 9146 ft 157 kts 208°
2026-04-22 06:07 62.83542 7.58953 9219 ft 166 kts 207°
2026-04-22 06:07 62.82456 7.58044 9271 ft 168 kts 207°
2026-04-22 06:07 62.81363 7.57132 9331 ft 168 kts 207°
2026-04-22 06:08 62.80269 7.56215 9403 ft 168 kts 207°
2026-04-22 06:08 62.79177 7.55302 9482 ft 168 kts 206°
2026-04-22 06:08 62.78027 7.54672 9500 ft 174 kts 192°
2026-04-22 06:08 62.76809 7.54462 9523 ft 177 kts 191°
2026-04-22 06:09 62.75576 7.54141 9522 ft 179 kts 192°
2026-04-22 06:09 62.74350 7.53800 9527 ft 181 kts 192°
2026-04-22 06:09 62.73093 7.53462 9530 ft 183 kts 192°
2026-04-22 06:09 62.71820 7.53133 9521 ft 184 kts 191°
2026-04-22 06:10 62.70546 7.52811 9527 ft 185 kts 191°
2026-04-22 06:10 62.69268 7.52493 9517 ft 184 kts 191°
2026-04-22 06:10 62.67993 7.52177 9515 ft 184 kts 191°
2026-04-22 06:10 62.66720 7.51862 9518 ft 183 kts 191°
2026-04-22 06:11 62.65450 7.51547 9530 ft 184 kts 191°
2026-04-22 06:11 62.64190 7.51235 9527 ft 185 kts 191°
2026-04-22 06:11 62.62905 7.50917 9518 ft 185 kts 191°
2026-04-22 06:11 62.61629 7.50602 9515 ft 184 kts 191°
2026-04-22 06:12 62.60359 7.50288 9526 ft 183 kts 191°
2026-04-22 06:12 62.59094 7.49965 9519 ft 182 kts 191°
2026-04-22 06:12 62.57830 7.49653 9522 ft 183 kts 191°
2026-04-22 06:12 62.56563 7.49350 9530 ft 183 kts 191°
2026-04-22 06:13 62.55310 7.49045 9515 ft 184 kts 191°
2026-04-22 06:13 62.54036 7.48732 9516 ft 184 kts 191°
2026-04-22 06:13 62.52765 7.48420 9511 ft 183 kts 191°
2026-04-22 06:13 62.51491 7.48106 9536 ft 185 kts 191°
2026-04-22 06:14 62.50229 7.47796 9495 ft 183 kts 191°
2026-04-22 06:14 62.48969 7.47488 9531 ft 183 kts 191°
2026-04-22 06:14 62.47696 7.47177 9537 ft 185 kts 191°
2026-04-22 06:14 62.46443 7.46873 9678 ft 178 kts 190°
2026-04-22 06:15 62.45235 7.46584 9757 ft 171 kts 191°
2026-04-22 06:15 62.44070 7.46304 9889 ft 166 kts 191°
2026-04-22 06:15 62.42928 7.46026 10067 ft 165 kts 191°
2026-04-22 06:15 62.41785 7.45745 10205 ft 165 kts 191°
2026-04-22 06:16 62.40646 7.45465 10319 ft 163 kts 191°
2026-04-22 06:16 62.39515 7.45187 10464 ft 164 kts 191°
2026-04-22 06:16 62.38386 7.44911 10572 ft 163 kts 191°
2026-04-22 06:16 62.37258 7.44636 10698 ft 163 kts 191°
2026-04-22 06:17 62.36129 7.44359 10838 ft 164 kts 191°
2026-04-22 06:17 62.34990 7.44082 10956 ft 165 kts 191°
2026-04-22 06:17 62.33866 7.43811 11066 ft 164 kts 191°
2026-04-22 06:17 62.32729 7.43536 11193 ft 164 kts 191°
2026-04-22 06:18 62.31586 7.43260 11326 ft 165 kts 190°
2026-04-22 06:18 62.30440 7.42983 11447 ft 166 kts 190°
2026-04-22 06:18 62.29278 7.42700 11509 ft 171 kts 190°
2026-04-22 06:18 62.28074 7.42406 11518 ft 177 kts 190°
2026-04-22 06:19 62.26837 7.42104 11508 ft 180 kts 189°
2026-04-22 06:19 62.25587 7.41804 11507 ft 182 kts 189°
2026-04-22 06:19 62.24322 7.41500 11512 ft 183 kts 189°
2026-04-22 06:19 62.23048 7.41194 11514 ft 184 kts 189°
2026-04-22 06:20 62.21784 7.40890 11510 ft 186 kts 189°
2026-04-22 06:20 62.20496 7.40582 11511 ft 187 kts 189°
2026-04-22 06:20 62.19210 7.40275 11502 ft 186 kts 189°
2026-04-22 06:20 62.17941 7.39975 11553 ft 179 kts 189°
2026-04-22 06:21 62.16752 7.39699 11774 ft 167 kts 189°
2026-04-22 06:21 62.15601 7.39425 11877 ft 167 kts 189°
2026-04-22 06:21 62.14442 7.39145 11927 ft 169 kts 189°
2026-04-22 06:21 62.13263 7.38858 11949 ft 172 kts 189°
2026-04-22 06:22 62.12059 7.38569 11969 ft 176 kts 189°
2026-04-22 06:22 62.10826 7.38273 11974 ft 180 kts 189°
2026-04-22 06:22 62.09571 7.37972 11973 ft 182 kts 189°
2026-04-22 06:22 62.08304 7.37670 11968 ft 184 kts 189°
2026-04-22 06:23 62.07037 7.37371 11960 ft 183 kts 189°
2026-04-22 06:23 62.05768 7.37070 11976 ft 183 kts 189°
2026-04-22 06:23 62.04497 7.36767 11968 ft 184 kts 189°
2026-04-22 06:23 62.03237 7.36468 11983 ft 185 kts 189°
2026-04-22 06:24 62.00688 7.35864 11973 ft 184 kts 189°
2026-04-22 06:24 61.99417 7.35564 11972 ft 183 kts 189°
2026-04-22 06:24 61.98148 7.35263 11980 ft 184 kts 189°
2026-04-22 06:25 61.96877 7.34962 11982 ft 184 kts 189°
2026-04-22 06:25 61.95602 7.34660 11966 ft 184 kts 189°
2026-04-22 06:25 61.94323 7.34358 11987 ft 185 kts 189°
2026-04-22 06:25 61.93042 7.34055 11987 ft 186 kts 189°
2026-04-22 06:26 61.91772 7.33755 11974 ft 186 kts 189°
2026-04-22 06:26 61.90490 7.33454 11967 ft 185 kts 189°
2026-04-22 06:26 61.89212 7.33153 11972 ft 185 kts 189°
2026-04-22 06:26 61.87938 7.32854 11981 ft 184 kts 189°
2026-04-22 06:27 61.86660 7.32553 11979 ft 185 kts 189°
2026-04-22 06:27 61.85375 7.32251 11975 ft 186 kts 189°
2026-04-22 06:27 61.84087 7.31949 11974 ft 186 kts 189°
2026-04-22 06:27 61.82807 7.31649 11956 ft 184 kts 189°
2026-04-22 06:28 61.81535 7.31351 11964 ft 184 kts 189°
2026-04-22 06:28 61.80265 7.31055 11958 ft 183 kts 189°
2026-04-22 06:28 61.79002 7.30760 11960 ft 182 kts 189°
2026-04-22 06:28 61.77740 7.30465 11964 ft 182 kts 189°
2026-04-22 06:29 61.76477 7.30169 11950 ft 182 kts 189°
2026-04-22 06:29 61.75221 7.29876 11954 ft 181 kts 189°
2026-04-22 06:29 61.73964 7.29582 11962 ft 183 kts 189°
2026-04-22 06:29 61.72698 7.29287 11944 ft 183 kts 189°
2026-04-22 06:30 61.71446 7.28996 11934 ft 182 kts 189°
2026-04-22 06:30 61.70186 7.28703 11938 ft 182 kts 189°
2026-04-22 06:30 61.68921 7.28408 11935 ft 183 kts 189°
2026-04-22 06:30 61.67657 7.28115 11924 ft 182 kts 189°
2026-04-22 06:31 61.66401 7.27825 11929 ft 182 kts 189°
2026-04-22 06:31 61.65563 7.27630 11927 ft 183 kts 189°
2026-04-22 06:31 61.64295 7.27336 11919 ft 183 kts 189°
2026-04-22 06:31 61.63027 7.27043 11914 ft 183 kts 189°
2026-04-22 06:32 61.61761 7.26751 11909 ft 183 kts 189°
2026-04-22 06:32 61.60490 7.26458 11915 ft 184 kts 189°
2026-04-22 06:32 61.59222 7.26166 11905 ft 183 kts 189°
2026-04-22 06:32 61.57962 7.25876 11913 ft 182 kts 189°
2026-04-22 06:33 61.56702 7.25584 11913 ft 183 kts 189°
2026-04-22 06:33 61.55435 7.25291 11912 ft 183 kts 189°
2026-04-22 06:33 61.54172 7.25000 11914 ft 183 kts 189°
2026-04-22 06:33 61.52917 7.24712 11888 ft 182 kts 189°
2026-04-22 06:34 61.51669 7.24428 11898 ft 180 kts 189°
2026-04-22 06:34 61.50426 7.24143 11908 ft 180 kts 189°
2026-04-22 06:34 61.49181 7.23856 11888 ft 179 kts 190°
2026-04-22 06:34 61.47952 7.23575 11893 ft 177 kts 190°
2026-04-22 06:35 61.46734 7.23254 11903 ft 177 kts 192°
2026-04-22 06:35 61.45512 7.22866 11908 ft 178 kts 192°
2026-04-22 06:35 61.44281 7.22468 11908 ft 179 kts 192°
2026-04-22 06:35 61.43044 7.22078 11906 ft 180 kts 192°
2026-04-22 06:36 61.41803 7.21695 11908 ft 181 kts 192°
2026-04-22 06:36 61.40570 7.21319 11906 ft 182 kts 192°
2026-04-22 06:36 61.39315 7.20937 11904 ft 183 kts 192°
2026-04-22 06:36 61.38053 7.20552 11903 ft 183 kts 192°
2026-04-22 06:37 61.36789 7.20166 11890 ft 183 kts 192°
2026-04-22 06:37 61.35534 7.19785 11902 ft 182 kts 192°
2026-04-22 06:37 61.34278 7.19405 11899 ft 183 kts 192°
2026-04-22 06:37 61.33029 7.19028 11802 ft 181 kts 192°
2026-04-22 06:38 61.31793 7.18654 11550 ft 178 kts 192°
2026-04-22 06:38 61.30567 7.18283 11302 ft 177 kts 192°
2026-04-22 06:38 61.29351 7.17915 11055 ft 176 kts 193°
2026-04-22 06:38 61.28140 7.17548 10818 ft 176 kts 193°
2026-04-22 06:39 61.26942 7.17186 10584 ft 176 kts 193°
2026-04-22 06:39 61.25730 7.16820 10341 ft 176 kts 193°
2026-04-22 06:39 61.24524 7.16456 10092 ft 175 kts 193°
2026-04-22 06:39 61.23314 7.16267 9813 ft 178 kts 173°
2026-04-22 06:40 61.22323 7.17738 9509 ft 180 kts 120°
2026-04-22 06:40 61.21846 7.20090 9245 ft 175 kts 107°
2026-04-22 06:40 61.21474 7.22474 8978 ft 170 kts 100°
2026-04-22 06:40 61.21456 7.24874 8704 ft 165 kts 84°
2026-04-22 06:41 61.21479 7.27259 8464 ft 166 kts 84°
2026-04-22 06:41 61.21506 7.29618 8215 ft 165 kts 84°
2026-04-22 06:41 61.21537 7.32002 7962 ft 165 kts 84°
2026-04-22 06:41 61.21564 7.34374 7702 ft 163 kts 83°
2026-04-22 06:42 61.21270 7.36695 7310 ft 174 kts 119°
2026-04-22 06:42 61.20422 7.38406 7053 ft 169 kts 154°
2026-04-22 06:42 61.19300 7.38844 6748 ft 165 kts 190°
2026-04-22 06:42 61.18293 7.37920 6412 ft 156 kts 229°
2026-04-22 06:43 61.17918 7.35869 5964 ft 158 kts 264°
2026-04-22 06:43 61.17895 7.33531 5461 ft 162 kts 273°
2026-04-22 06:43 61.17958 7.31243 4943 ft 158 kts 274°
2026-04-22 06:43 61.18005 7.28924 4344 ft 157 kts 272°
2026-04-22 06:44 61.18024 7.26815 4248 ft 134 kts 271°
2026-04-22 06:44 61.17983 7.24995 3968 ft 120 kts 264°
2026-04-22 06:44 61.17808 7.23273 3303 ft 120 kts 254°
2026-04-22 06:44 61.17565 7.21660 2787 ft 116 kts 248°
2026-04-22 06:45 61.17267 7.20192 2509 ft 106 kts 246°
2026-04-22 06:45 61.16976 7.18861 2310 ft 100 kts 244°
2026-04-22 06:45 61.16664 7.17576 2162 ft 100 kts 241°
2026-04-22 06:45 61.16329 7.16306 1936 ft 102 kts 239°
2026-04-22 06:46 61.15997 7.15108 1750 ft 89 kts 239°
2026-04-22 06:46 61.15696 7.14067 1643 ft 77 kts 237°
2026-04-22 06:46 61.15513 7.13417 1640 ft 21 kts 231°
2026-04-22 06:46 61.15505 7.13377 1640 ft 6 kts 59°
2026-04-22 06:47 61.15541 7.13501 1640 ft 14 kts 59°
2026-04-22 06:47 61.15593 7.13668 1640 ft 13 kts 60°
2026-04-22 06:47 61.15620 7.13713 1640 ft 6 kts 293°
2026-04-22 06:47 61.15672 7.13630 1640 ft 11 kts 331°
2026-04-22 06:48 61.15684 7.13545 1640 ft 4 kts 333°
2026-04-22 06:48 61.15687 7.13547 1640 ft 0 kts 62°